[[[{"header":{"parameterUnit":"kt","parameterCategory":2,"dx":1,"dy":1,"la1":30.253999710083008,"la2":30.299108505249023,"lo1":-89.0895004272461,"lo2":-89.04439544677734,"nx":28,"ny":28,"refTime":"2022-10-06T21:00:00:Z","depth":0,"parameterNumber":1,"parameterNumberName":"U-component_of_WINDS"},"data":[1.697,1.7027,1.7028,1.7094,1.7106,1.7152,1.7169,1.7191,1.721,1.7267,1.7301,1.7309,1.7329,1.7372,1.741,1.7413,1.7429,1.745,1.745,1.7354,1.7341,1.7329,1.7313,1.7454,1.7454,1.7547,1.7548,1.7549,1.6905,1.6916,1.6951,1.6984,1.7015,1.6995,1.7022,1.7049,1.7091,1.7114,1.7147,1.7198,1.7239,1.7253,1.7293,1.7323,1.7316,1.7334,1.7331,1.7334,1.7233,1.7216,1.7339,1.7339,1.7339,1.7339,1.7339,1.7339,1.6784,1.6818,1.6837,1.6875,1.6892,1.6915,1.6949,1.6956,1.6991,1.703,1.7024,1.7073,1.7097,1.7146,1.7163,1.7203,1.7183,1.7203,1.7208,1.7212,1.7217,1.7082,1.721,1.721,1.721,1.7209,1.7209,0,1.6695,1.6692,1.6724,1.6757,1.6785,1.681,1.6834,1.6855,1.685,1.6879,1.6922,1.6948,1.6999,1.7041,1.7079,1.7092,1.7074,1.7073,1.7086,1.7088,1.7086,1.7087,1.6921,1.7068,1.7067,1.7066,1.7066,1.7065,1.6572,1.6612,1.6631,1.6654,1.6666,1.6704,1.6726,1.6718,1.6743,1.6772,1.6804,1.6845,1.6877,1.6948,1.6957,1.6996,1.6987,1.7044,1.6993,1.6995,1.6987,1.6984,1.6988,1.7053,1.7054,1.7056,1.7057,0,1.6503,1.65,1.6561,1.6576,1.6581,1.6624,1.6637,1.6672,1.6674,1.6723,1.6734,1.6738,1.6781,1.678,1.683,1.6829,1.6904,1.6896,1.6896,1.6893,1.6943,1.6938,1.7105,1.7127,1.6983,1.6984,1.6985,0,1.6396,1.6449,1.6441,1.6477,1.6536,1.6524,1.6583,1.659,1.6608,1.6646,1.6624,1.6661,1.6653,1.6691,1.6689,1.675,1.676,1.6762,1.676,1.6762,1.6762,1.6774,1.6767,1.6756,1.6755,1.6754,1.6754,0,1.6286,1.6344,1.6401,1.6414,1.6433,1.6462,1.6472,1.649,1.6513,1.6542,1.6556,1.6592,1.6612,1.6641,1.6636,1.6602,1.6712,1.6663,1.6713,1.6714,1.6735,1.6734,1.6884,1.6753,1.6752,1.6752,1.6752,0,1.6198,1.6224,1.6308,1.6324,1.6339,1.6378,1.641,1.6442,1.6464,1.6464,1.6487,1.6471,1.6523,1.6476,1.6549,1.6505,1.6527,1.6533,1.6537,1.6539,1.6485,1.6568,1.6713,1.6727,1.6546,1.6544,1.6543,0,1.6073,1.6156,1.6144,1.6225,1.6262,1.6232,1.6276,1.6295,1.6297,1.6331,1.6335,1.6374,1.6338,1.635,1.6387,1.6392,1.645,1.6385,1.6437,1.6439,1.643,1.6563,1.6583,1.6682,1.6521,1.6523,1.6525,0,1.5974,1.5994,1.6009,1.6022,1.6041,1.6073,1.6123,1.6157,1.618,1.6204,1.6245,1.6301,1.6276,1.6296,1.6286,1.6324,1.6411,1.6292,1.6292,1.6313,1.6509,1.6529,1.6545,1.6397,1.64,1.6402,1.6507,0,1.5839,1.5879,1.5919,1.5947,1.5971,1.6021,1.6013,1.604,1.6027,1.6027,1.6089,1.6103,1.614,1.6158,1.6146,1.6233,1.6218,1.619,1.6141,1.623,1.6264,1.6278,1.6091,1.6089,1.6088,1.6087,0,0,1.5719,1.5775,1.5758,1.5804,1.5822,1.5788,1.5842,1.5857,1.5887,1.5901,1.5874,1.5954,1.5966,1.6042,1.6069,1.6085,1.61,1.6068,1.6188,1.6199,1.621,1.6247,1.6262,1.6085,1.6084,1.6084,1.6084,0,1.5667,1.5676,1.5728,1.5742,1.5761,1.5757,1.577,1.5783,1.5785,1.5844,1.5816,1.5853,1.5916,1.5933,1.595,1.606,1.6036,1.6072,1.6132,1.6176,1.6189,1.62,1.6239,1.6254,1.6081,1.6081,1.6081,0,1.5567,1.5575,1.5598,1.5636,1.5648,1.5688,1.5634,1.5678,1.5708,1.5668,1.5727,1.5734,1.5756,1.5829,1.5861,1.5837,1.5979,1.5933,1.5941,1.5943,1.5985,1.6001,1.6015,1.5832,1.5831,1.583,0,0,1.5522,1.5558,1.5563,1.5624,1.5634,1.5628,1.5648,1.5635,1.5654,1.5661,1.5668,1.5689,1.5725,1.575,1.5784,1.5864,1.5868,1.5903,1.5914,1.5924,1.5932,1.5976,1.5992,1.5827,1.5827,1.5827,0,0,1.5501,1.5507,1.5489,1.5559,1.5577,1.5586,1.5624,1.5603,1.5632,1.5625,1.5608,1.5612,1.568,1.5688,1.5646,1.5766,1.5718,1.5728,1.5758,1.5772,1.5784,1.578,1.5593,0,0,0,0,0,1.5441,1.5506,1.549,1.55,1.5548,1.5595,1.5601,1.5586,1.5552,1.5584,1.5587,1.556,1.5662,1.5624,1.5635,1.5682,1.5786,1.5793,1.58,1.5857,1.5872,1.5885,0,0,0,0,0,0,1.5445,1.5458,1.5488,1.55,1.551,1.5592,1.5532,1.5529,1.5549,1.5542,1.556,1.556,1.555,1.5617,1.5628,1.5672,1.5589,1.5789,1.5795,1.58,1.5862,1.5875,1.5886,0,0,0,0,0,1.5448,1.5458,1.5538,1.5499,1.5508,1.5504,1.5529,1.5527,1.5541,1.5545,1.5544,1.5528,1.5552,1.556,1.5623,1.5667,1.5581,1.5586,1.5793,1.5798,1.5802,1.5868,0,0,0,0,0,0,1.5451,1.5457,1.5539,1.5542,1.5472,1.5499,1.5503,1.5524,1.5542,1.5542,1.5512,1.5507,1.5554,1.556,1.5566,1.5667,1.5575,1.5579,1.5582,1.5796,1.58,1.5804,0,0,0,0,0,0,1.5452,1.546,1.5541,1.5508,1.5506,1.5495,1.5498,1.555,1.5543,1.5509,1.5505,1.551,1.5545,1.556,1.5565,1.5646,1.5571,1.5575,1.5577,1.5579,1.58,1.5803,0,0,0,0,0,0,1.5455,1.5462,1.5507,1.5506,1.5504,1.5529,1.5541,1.5591,1.5513,1.5509,1.5505,1.5502,1.5546,1.555,1.5564,1.5644,1.5646,1.5571,1.5573,1.5575,1.5577,0,0,0,0,0,0,0,1.5457,1.5416,1.5525,1.5504,1.5503,1.5563,1.5564,1.5565,1.5512,1.5509,1.5506,1.5504,1.5548,1.5552,1.5557,1.5642,0,0,1.557,1.5572,0,0,0,0,0,0,0,0,1.5413,1.5415,1.5525,1.5526,1.5526,1.5563,1.5564,1.5565,1.5511,1.5509,1.5507,1.5505,1.5549,1.5553,1.5556,0,0,0,0,0,0,0,0,0,0,0,0,0,0,0,1.5525,1.5526,0,1.5564,1.5564,1.5564,1.5511,1.5509,1.5507,1.5505,1.555,1.5553,1.5556,0,0,0,0,0,0,0,0,0,0,0,0,0,0,0,0,0,0,0,0,0,0,0,0,0,0,0,0,0,0,0,0,0,0,0,0,0,0,0,0,0,0,0,0,0,0,0,0,0,0,0,0,0,0,0,0,0,0,0,0,0,0,0,0,0,0,0,0,0]}],[{"header":{"parameterUnit":"kt","parameterCategory":2,"dx":1,"dy":1,"la1":30.253999710083008,"la2":30.299108505249023,"lo1":-89.0895004272461,"lo2":-89.04439544677734,"nx":28,"ny":28,"refTime":"2022-10-06T21:00:00:Z","depth":0,"parameterNumber":2,"parameterNumberName":"V-component_of_WINDS"},"data":[-1.4698,-1.4708,-1.4744,-1.4775,-1.4812,-1.484,-1.4862,-1.4894,-1.493,-1.4969,-1.4998,-1.5037,-1.5089,-1.5135,-1.5171,-1.5188,-1.5201,-1.5179,-1.5203,-1.5264,-1.5275,-1.5285,-1.5284,-1.5181,-1.5181,-1.5135,-1.5135,-1.5135,-1.4744,-1.4781,-1.4806,-1.4856,-1.4879,-1.4922,-1.4966,-1.4983,-1.5007,-1.505,-1.508,-1.5118,-1.5154,-1.5213,-1.5254,-1.5263,-1.5287,-1.5272,-1.5272,-1.528,-1.5346,-1.5345,-1.5253,-1.5253,-1.5253,-1.5253,-1.5253,-1.5253,-1.4839,-1.4844,-1.4894,-1.4922,-1.4957,-1.499,-1.5002,-1.5048,-1.5075,-1.5119,-1.5157,-1.5186,-1.5237,-1.5304,-1.5335,-1.5361,-1.5383,-1.5379,-1.5378,-1.5376,-1.537,-1.5435,-1.5369,-1.5369,-1.537,-1.537,-1.537,0,-1.492,-1.4949,-1.4975,-1.5012,-1.5035,-1.5067,-1.5104,-1.5112,-1.5187,-1.5206,-1.5237,-1.5261,-1.531,-1.5345,-1.539,-1.5425,-1.5472,-1.548,-1.5478,-1.546,-1.5439,-1.5452,-1.556,-1.5481,-1.5482,-1.5483,-1.5484,-1.5484,-1.5019,-1.5019,-1.5088,-1.5102,-1.513,-1.5151,-1.5171,-1.5237,-1.5256,-1.5311,-1.5313,-1.5348,-1.5379,-1.5423,-1.5479,-1.5515,-1.5539,-1.5505,-1.5544,-1.5528,-1.5541,-1.554,-1.5542,-1.5496,-1.5494,-1.5493,-1.5492,0,-1.5072,-1.5129,-1.5141,-1.5209,-1.5226,-1.5224,-1.5283,-1.5291,-1.5335,-1.5352,-1.536,-1.5429,-1.5459,-1.552,-1.5565,-1.5596,-1.5599,-1.562,-1.5582,-1.559,-1.5568,-1.5569,-1.548,-1.5473,-1.558,-1.5579,-1.5578,0,-1.5179,-1.5176,-1.5263,-1.5266,-1.5267,-1.5332,-1.5331,-1.5369,-1.5412,-1.5426,-1.5488,-1.55,-1.5575,-1.5597,-1.5643,-1.5655,-1.5663,-1.5688,-1.57,-1.5683,-1.568,-1.5694,-1.5699,-1.5726,-1.5726,-1.5726,-1.5727,0,-1.5256,-1.5298,-1.5304,-1.5323,-1.5395,-1.5397,-1.5427,-1.5475,-1.5494,-1.5528,-1.5542,-1.5577,-1.5597,-1.5625,-1.5682,-1.5707,-1.5698,-1.5744,-1.5724,-1.5722,-1.5718,-1.5717,-1.5624,-1.5727,-1.5727,-1.5727,-1.5728,0,-1.5351,-1.5383,-1.5382,-1.5444,-1.5452,-1.5456,-1.5495,-1.5512,-1.5558,-1.5586,-1.5614,-1.5662,-1.5675,-1.5717,-1.5738,-1.5754,-1.577,-1.5795,-1.5795,-1.58,-1.5844,-1.5785,-1.5688,-1.5681,-1.5806,-1.5806,-1.5807,0,-1.5425,-1.5439,-1.5494,-1.5492,-1.5507,-1.5576,-1.5582,-1.5619,-1.5658,-1.5677,-1.572,-1.5741,-1.5784,-1.5799,-1.5802,-1.5847,-1.5827,-1.5852,-1.5882,-1.5882,-1.5869,-1.5781,-1.5751,-1.5703,-1.5816,-1.5815,-1.5814,0,-1.5489,-1.5574,-1.5569,-1.5594,-1.5653,-1.5665,-1.5671,-1.5705,-1.5715,-1.575,-1.5758,-1.5788,-1.5823,-1.5846,-1.5888,-1.5887,-1.5843,-1.5924,-1.5927,-1.5909,-1.5824,-1.5797,-1.5789,-1.5872,-1.5871,-1.587,-1.5821,0,-1.5623,-1.5636,-1.5626,-1.5675,-1.5693,-1.5694,-1.5755,-1.5767,-1.5806,-1.5846,-1.5857,-1.5902,-1.5937,-1.5942,-1.5979,-1.5957,-1.597,-1.6006,-1.605,-1.5991,-1.5977,-1.5971,-1.6067,-1.6069,-1.607,-1.6071,0,0,-1.568,-1.5699,-1.5759,-1.5766,-1.5785,-1.5855,-1.585,-1.5877,-1.5928,-1.5941,-1.5966,-1.6014,-1.6049,-1.6056,-1.6043,-1.6056,-1.6059,-1.6075,-1.6019,-1.6012,-1.6007,-1.599,-1.5983,-1.6074,-1.6074,-1.6075,-1.6075,0,-1.5742,-1.5774,-1.5767,-1.5798,-1.5845,-1.5886,-1.5885,-1.5943,-1.5968,-1.5978,-1.6036,-1.605,-1.6083,-1.6114,-1.6134,-1.6076,-1.6119,-1.6082,-1.6031,-1.603,-1.6022,-1.6015,-1.5997,-1.599,-1.6079,-1.6078,-1.6078,0,-1.5817,-1.5859,-1.5862,-1.5906,-1.5937,-1.5949,-1.6012,-1.602,-1.6031,-1.6106,-1.6114,-1.6147,-1.6192,-1.6189,-1.6191,-1.6214,-1.6171,-1.6194,-1.6187,-1.6188,-1.619,-1.6181,-1.6172,-1.6287,-1.6287,-1.6288,0,0,-1.5861,-1.5873,-1.5938,-1.5924,-1.5939,-1.6,-1.6012,-1.6052,-1.6089,-1.6104,-1.6147,-1.6182,-1.6204,-1.6216,-1.6239,-1.6227,-1.6242,-1.6217,-1.6207,-1.6199,-1.6195,-1.6196,-1.6186,-1.6289,-1.6289,-1.6289,0,0,-1.5883,-1.5958,-1.5989,-1.598,-1.6014,-1.6078,-1.6067,-1.6108,-1.6134,-1.6141,-1.6208,-1.622,-1.6219,-1.6248,-1.6265,-1.6256,-1.6299,-1.6296,-1.6236,-1.6225,-1.6215,-1.6208,-1.6334,0,0,0,0,0,-1.5976,-1.5949,-1.5977,-1.5984,-1.6039,-1.6062,-1.607,-1.6124,-1.6154,-1.6145,-1.6188,-1.6231,-1.6272,-1.6288,-1.6295,-1.6275,-1.6312,-1.6308,-1.6304,-1.6226,-1.6213,-1.6202,0,0,0,0,0,0,-1.598,-1.5988,-1.5978,-1.6038,-1.6052,-1.6064,-1.6127,-1.6141,-1.6157,-1.6165,-1.6222,-1.6233,-1.628,-1.6289,-1.6294,-1.6274,-1.6333,-1.6311,-1.6307,-1.6304,-1.6221,-1.6211,-1.6202,0,0,0,0,0,-1.5983,-1.599,-1.6064,-1.6039,-1.6051,-1.6116,-1.6128,-1.614,-1.6154,-1.6218,-1.6231,-1.6193,-1.6278,-1.6286,-1.6292,-1.627,-1.6329,-1.6331,-1.6309,-1.6306,-1.6303,-1.6216,0,0,0,0,0,0,-1.5985,-1.6002,-1.6068,-1.6073,-1.6053,-1.6117,-1.6129,-1.614,-1.6207,-1.6219,-1.6192,-1.6198,-1.6276,-1.6283,-1.6289,-1.6266,-1.6327,-1.6328,-1.633,-1.6306,-1.6304,-1.6302,0,0,0,0,0,0,-1.5998,-1.6006,-1.607,-1.6085,-1.6093,-1.6117,-1.6127,-1.614,-1.6207,-1.6178,-1.6185,-1.6194,-1.6267,-1.628,-1.6285,-1.6302,-1.6325,-1.6326,-1.6328,-1.6328,-1.6305,-1.6303,0,0,0,0,0,0,-1.6002,-1.6009,-1.6084,-1.609,-1.6097,-1.6163,-1.6129,-1.6183,-1.6219,-1.6174,-1.6223,-1.6226,-1.6263,-1.627,-1.6282,-1.6297,-1.6301,-1.6325,-1.6326,-1.6327,-1.6327,0,0,0,0,0,0,0,-1.6006,-1.5949,-1.6035,-1.6094,-1.61,-1.6124,-1.6126,-1.6127,-1.6219,-1.6221,-1.6223,-1.6225,-1.6315,-1.6317,-1.6319,-1.6292,0,0,-1.6325,-1.6325,0,0,0,0,0,0,0,0,-1.5947,-1.5948,-1.6035,-1.6036,-1.6037,-1.6125,-1.6126,-1.6127,-1.6219,-1.6221,-1.6222,-1.6224,-1.6315,-1.6317,-1.6318,0,0,0,0,0,0,0,0,0,0,0,0,0,0,0,-1.6035,-1.6036,0,-1.6125,-1.6126,-1.6127,-1.622,-1.6221,-1.6222,-1.6223,-1.6316,-1.6317,-1.6318,0,0,0,0,0,0,0,0,0,0,0,0,0,0,0,0,0,0,0,0,0,0,0,0,0,0,0,0,0,0,0,0,0,0,0,0,0,0,0,0,0,0,0,0,0,0,0,0,0,0,0,0,0,0,0,0,0,0,0,0,0,0,0,0,0,0,0,0,0]}]]]